Tracking 34717 objects as of 15-Jul-2026
HD Live streaming from Space Station
objects crossing your sky now

METEOR 1-13

Track METEOR 1-13 now!
10-day predictions
METEOR 1-13 is classified as:


NORAD ID: 6256
Int'l Code: 1972-085A
Perigee: 848.9 km
Apogee: 887.7 km
Inclination: 81.3 °
Period: 102.2 minutes
Semi major axis: 7239 km
RCS: 4.603 m2 (large)
Launch date: October 26, 1972
Source: Commonwealth of Independent States (former USSR) (CIS)
Launch site: PLESETSK MISSILE AND SPACE COMPLEX (PKMTR)
Your satellite tracking list
Your tracking list is empty




NASA's NSSDC Master Catalog

Two Line Element Set (TLE):
1 06256U 72085A   26195.87394098 -.00000101  00000-0 -65290-4 0  9992
2 06256  81.2722 126.0248 0026830  56.7293 303.6442 14.09480885758770
Source of the keplerian elements: AFSPC